TimeHST,TemperatureF,Dew PointF,Humidity,Sea Level PressureIn,VisibilityMPH,Wind Direction,Wind SpeedMPH,Gust SpeedMPH,PrecipitationIn,Events,Conditions,WindDirDegrees,DateUTC
12:53 AM,73.9,61.0,64,30.08,10.0,ESE,6.9,-,N/A,,Clear,120,2013-04-06 10:53:00
1:53 AM,73.9,61.0,64,30.06,10.0,ESE,6.9,-,N/A,,Clear,110,2013-04-06 11:53:00
2:53 AM,73.0,61.0,66,30.06,10.0,SE,6.9,-,N/A,,Clear,130,2013-04-06 12:53:00
3:53 AM,73.9,61.0,64,30.05,10.0,SE,6.9,-,N/A,,Clear,130,2013-04-06 13:53:00
4:53 AM,73.0,61.0,66,30.06,10.0,SE,4.6,-,N/A,,Clear,130,2013-04-06 14:53:00
5:53 AM,73.0,60.1,64,30.07,10.0,ESE,4.6,-,N/A,,Clear,110,2013-04-06 15:53:00
6:53 AM,72.0,60.1,66,30.09,10.0,ENE,3.5,-,N/A,,Scattered Clouds,70,2013-04-06 16:53:00
7:53 AM,77.0,61.0,58,30.11,10.0,Calm,Calm,-,N/A,,Partly Cloudy,0,2013-04-06 17:53:00
8:53 AM,78.1,64.0,62,30.13,10.0,WNW,5.8,-,N/A,,Partly Cloudy,290,2013-04-06 18:53:00
9:53 AM,79.0,64.0,60,30.14,10.0,NW,5.8,-,N/A,,Clear,310,2013-04-06 19:53:00
10:53 AM,79.0,64.9,62,30.13,10.0,Variable,4.6,-,N/A,,Clear,0,2013-04-06 20:53:00
11:53 AM,81.0,64.9,58,30.12,10.0,WNW,9.2,-,N/A,,Clear,300,2013-04-06 21:53:00
12:53 PM,81.0,64.9,58,30.09,10.0,WNW,9.2,-,N/A,,Clear,290,2013-04-06 22:53:00
1:53 PM,82.0,64.9,56,30.07,10.0,WNW,9.2,-,N/A,,Clear,300,2013-04-06 23:53:00
2:53 PM,82.0,66.0,58,30.04,10.0,West,8.1,-,N/A,,Clear,280,2013-04-07 00:53:00
3:53 PM,82.0,66.0,58,30.03,10.0,West,9.2,-,N/A,,Clear,260,2013-04-07 01:53:00
4:53 PM,80.1,66.0,62,30.03,10.0,WSW,8.1,-,N/A,,Clear,250,2013-04-07 02:53:00
5:53 PM,79.0,66.9,66,30.05,10.0,SSW,5.8,-,N/A,,Clear,210,2013-04-07 03:53:00
6:53 PM,78.1,66.9,68,30.08,10.0,South,6.9,-,N/A,,Clear,190,2013-04-07 04:53:00
7:53 PM,77.0,66.9,71,30.10,10.0,SSE,9.2,-,N/A,,Clear,160,2013-04-07 05:53:00
8:53 PM,77.0,66.9,71,30.12,10.0,SE,6.9,-,N/A,,Clear,140,2013-04-07 06:53:00
9:53 PM,75.9,66.9,74,30.14,10.0,ESE,4.6,-,N/A,,Clear,120,2013-04-07 07:53:00
10:53 PM,75.0,66.0,73,30.14,10.0,ESE,5.8,-,N/A,,Clear,110,2013-04-07 08:53:00
11:53 PM,75.0,66.0,73,30.13,10.0,ENE,3.5,-,N/A,,Scattered Clouds,60,2013-04-07 09:53:00